| time (UTC) | temp C | wind direction | speed KPH | gust KPH | rain 1hr cm | rain 24hr cm | rain mn cm | humidity % | barometer mb |
| 20260508095010 | 1 | 247 | 0.0 | 3.2 | 0.00 | 0.36 | 0.00 | 74 | 1019.2 |
| 20260508094516 | 1 | 245 | 0.0 | 1.6 | 0.00 | 0.36 | 0.00 | 76 | 1019.2 |
| 20260508094004 | 1 | 225 | 1.6 | 1.6 | 0.00 | 0.36 | 0.00 | 75 | 1019.1 |
| 20260508093510 | 1 | 205 | 0.0 | 1.6 | 0.00 | 0.36 | 0.00 | 76 | 1019.1 |
| 20260508093011 | 2 | 205 | 0.0 | 1.6 | 0.00 | 0.36 | 0.00 | 74 | 1019.2 |
| 20260508092508 | 2 | 205 | 0.0 | 1.6 | 0.00 | 0.36 | 0.00 | 72 | 1019.1 |
| 20260508092006 | 2 | 251 | 0.0 | 6.4 | 0.00 | 0.36 | 0.00 | 71 | 1019.2 |
| 20260508091513 | 2 | 245 | 0.0 | 6.4 | 0.00 | 0.36 | 0.00 | 69 | 1019.3 |
| 20260508091007 | 2 | 215 | 0.0 | 3.2 | 0.00 | 0.36 | 0.00 | 68 | 1019.2 |
| 20260508090507 | 2 | 217 | 1.6 | 4.8 | 0.00 | 0.36 | 0.00 | 67 | 1019.3 |
| 20260508090007 | 3 | 217 | 3.2 | 4.8 | 0.00 | 0.36 | 0.00 | 64 | 1019.4 |
| 20260508085507 | 3 | 219 | 1.6 | 4.8 | 0.00 | 0.36 | 0.00 | 62 | 1019.3 |
| 20260508085003 | 3 | 203 | 1.6 | 4.8 | 0.00 | 0.36 | 0.00 | 60 | 1019.2 |
| 20260508084525 | 4 | 203 | 1.6 | 3.2 | 0.00 | 0.36 | 0.00 | 60 | 1019.2 |
| 20260508084006 | 4 | 209 | 0.0 | 3.2 | 0.00 | 0.36 | 0.00 | 59 | 1019.2 |
| 20260508083504 | 5 | 196 | 0.0 | 3.2 | 0.00 | 0.36 | 0.00 | 57 | 1019.3 |
| 20260508083021 | 5 | 163 | 1.6 | 8.0 | 0.00 | 0.36 | 0.00 | 54 | 1019.2 |
| 20260508082504 | 6 | 242 | 3.2 | 11.3 | 0.00 | 0.36 | 0.00 | 51 | 1019.3 |
| 20260508082012 | 6 | 294 | 1.6 | 11.3 | 0.00 | 0.36 | 0.00 | 47 | 1019.3 |
| 20260508081522 | 6 | 259 | 4.8 | 14.5 | 0.00 | 0.36 | 0.00 | 49 | 1019.2 |
| 20260508081006 | 6 | 238 | 4.8 | 14.5 | 0.00 | 0.36 | 0.00 | 47 | 1019.3 |
| 20260508080507 | 6 | 225 | 4.8 | 12.9 | 0.00 | 0.36 | 0.00 | 48 | 1019.4 |
| 20260508080016 | 5 | 275 | 3.2 | 12.9 | 0.00 | 0.36 | 0.00 | 53 | 1019.4 |
| 20260508075505 | 4 | 210 | 0.0 | 3.2 | 0.00 | 0.36 | 0.00 | 60 | 1019.3 |
| 20260508075007 | 4 | 148 | 1.6 | 4.8 | 0.00 | 0.36 | 0.00 | 57 | 1019.2 |
| 20260508074514 | 5 | 213 | 0.0 | 8.0 | 0.00 | 0.36 | 0.00 | 57 | 1019.4 |
| 20260508074009 | 5 | 155 | 0.0 | 8.0 | 0.00 | 0.36 | 0.00 | 55 | 1019.5 |
| 20260508073509 | 5 | 221 | 1.6 | 8.0 | 0.00 | 0.36 | 0.00 | 55 | 1019.5 |
| 20260508073013 | 5 | 231 | 3.2 | 8.0 | 0.00 | 0.36 | 0.00 | 54 | 1019.6 |
| 20260508072509 | 5 | 280 | 3.2 | 8.0 | 0.00 | 0.36 | 0.00 | 55 | 1019.6 |
| 20260508072007 | 5 | 221 | 1.6 | 4.8 | 0.00 | 0.36 | 0.00 | 57 | 1019.7 |
| 20260508071529 | 6 | 251 | 1.6 | 12.9 | 0.00 | 0.36 | 0.00 | 54 | 1019.6 |
| 20260508071008 | 6 | 148 | 1.6 | 12.9 | 0.00 | 0.36 | 0.00 | 52 | 1019.6 |
| 20260508070507 | 6 | 213 | 1.6 | 11.3 | 0.00 | 0.36 | 0.00 | 51 | 1019.6 |
| 20260508070027 | 6 | 293 | 3.2 | 9.7 | 0.00 | 0.36 | 0.00 | 51 | 1019.6 |
| 20260508065507 | 7 | 101 | 1.6 | 16.1 | 0.00 | 0.36 | 0.00 | 52 | 1019.6 |
| 20260508065004 | 7 | 179 | 4.8 | 19.3 | 0.00 | 0.36 | 0.00 | 46 | 1019.6 |
| 20260508064535 | 7 | 271 | 4.8 | 19.3 | 0.00 | 0.36 | 0.00 | 45 | 1019.6 |
| 20260508064003 | 8 | 268 | 4.8 | 19.3 | 0.00 | 0.36 | 0.00 | 47 | 1019.6 |
| 20260508063507 | 8 | 250 | 11.3 | 19.3 | 0.00 | 0.36 | 0.00 | 45 | 1019.6 |
| 20260508063025 | 7 | 323 | 1.6 | 12.9 | 0.00 | 0.36 | 0.00 | 53 | 1019.6 |
| 20260508062508 | 7 | 283 | 4.8 | 11.3 | 0.00 | 0.36 | 0.00 | 47 | 1019.5 |
| 20260508062007 | 7 | 283 | 6.4 | 16.1 | 0.00 | 0.36 | 0.00 | 48 | 1019.5 |
| 20260508061520 | 7 | 229 | 4.8 | 16.1 | 0.00 | 0.36 | 0.00 | 47 | 1019.5 |
| 20260508061010 | 7 | 224 | 4.8 | 14.5 | 0.00 | 0.36 | 0.00 | 48 | 1019.4 |
| 20260508060507 | 7 | 265 | 1.6 | 22.5 | 0.00 | 0.36 | 0.00 | 49 | 1019.4 |
| 20260508060021 | 7 | 323 | 6.4 | 22.5 | 0.00 | 0.36 | 0.00 | 46 | 1019.4 |
| 20260508055508 | 6 | 276 | 9.7 | 22.5 | 0.00 | 0.36 | 0.36 | 50 | 1019.5 |
| 20260508055005 | 6 | 148 | 3.2 | 9.7 | 0.00 | 0.36 | 0.36 | 57 | 1019.6 |
| 20260508054517 | 6 | 211 | 3.2 | 9.7 | 0.00 | 0.36 | 0.36 | 56 | 1019.5 |
| 20260508054008 | 5 | 214 | 0.0 | 8.0 | 0.00 | 0.36 | 0.36 | 64 | 1019.5 |
| 20260508053511 | 5 | 123 | 1.6 | 19.3 | 0.00 | 0.36 | 0.36 | 66 | 1019.4 |
| 20260508053031 | 4 | 299 | 3.2 | 19.3 | 0.00 | 0.36 | 0.36 | 65 | 1019.5 |
| 20260508052508 | 4 | 131 | 0.0 | 3.2 | 0.00 | 0.36 | 0.36 | 65 | 1019.4 |
| 20260508052006 | 5 | 244 | 0.0 | 3.2 | 0.00 | 0.36 | 0.36 | 63 | 1019.4 |
| 20260508051528 | 5 | 172 | 0.0 | 3.2 | 0.00 | 0.36 | 0.36 | 65 | 1019.4 |
| 20260508051007 | 6 | 138 | 1.6 | 6.4 | 0.00 | 0.36 | 0.36 | 59 | 1019.4 |
| 20260508050510 | 6 | 203 | 3.2 | 6.4 | 0.00 | 0.36 | 0.36 | 57 | 1019.5 |
| 20260508050028 | 7 | 193 | 0.0 | 8.0 | 0.00 | 0.36 | 0.36 | 54 | 1019.6 |
| 20260508045504 | 7 | 252 | 0.0 | 9.7 | 0.00 | 0.36 | 0.36 | 53 | 1019.5 |
| 20260508045009 | 8 | 298 | 3.2 | 12.9 | 0.00 | 0.36 | 0.36 | 46 | 1019.5 |
| 20260508044524 | 8 | 269 | 3.2 | 16.1 | 0.00 | 0.36 | 0.36 | 46 | 1019.4 |
| 20260508044006 | 8 | 314 | 6.4 | 16.1 | 0.00 | 0.36 | 0.36 | 46 | 1019.5 |
| 20260508043508 | 8 | 276 | 4.8 | 16.1 | 0.00 | 0.36 | 0.36 | 47 | 1019.4 |
| 20260508043021 | 8 | 278 | 8.0 | 19.3 | 0.00 | 0.36 | 0.36 | 46 | 1019.4 |
| 20260508042507 | 8 | 297 | 9.7 | 19.3 | 0.00 | 0.36 | 0.36 | 45 | 1019.4 |
| 20260508042009 | 8 | 310 | 8.0 | 19.3 | 0.00 | 0.36 | 0.36 | 45 | 1019.5 |
| 20260508041520 | 7 | 230 | 3.2 | 19.3 | 0.00 | 0.36 | 0.36 | 49 | 1019.3 |
| 20260508041007 | 7 | 245 | 4.8 | 24.1 | 0.00 | 0.36 | 0.36 | 47 | 1019.4 |
| 20260508040507 | 8 | 216 | 3.2 | 24.1 | 0.00 | 0.36 | 0.36 | 47 | 1019.2 |
| 20260508040023 | 7 | 240 | 9.7 | 24.1 | 0.00 | 0.36 | 0.36 | 48 | 1019.2 |
| 20260508035508 | 8 | 236 | 4.8 | 20.9 | 0.00 | 0.36 | 0.36 | 49 | 1019.3 |
| 20260508035009 | 8 | 278 | 4.8 | 19.3 | 0.00 | 0.36 | 0.36 | 48 | 1019.2 |
| 20260508034529 | 8 | 284 | 9.7 | 24.1 | 0.00 | 0.36 | 0.36 | 48 | 1019.3 |
| 20260508034012 | 8 | 283 | 12.9 | 25.7 | 0.00 | 0.36 | 0.36 | 51 | 1019.2 |
| 20260508033505 | 6 | 285 | 16.1 | 25.7 | 0.00 | 0.36 | 0.36 | 63 | 1019.3 |
| 20260508033030 | 4 | 262 | 4.8 | 24.1 | 0.00 | 0.36 | 0.36 | 77 | 1019.1 |
| 20260508032509 | 3 | 205 | 1.6 | 4.8 | 0.00 | 0.36 | 0.36 | 82 | 1019.1 |
| 20260508032008 | 3 | 200 | 0.0 | 3.2 | 0.00 | 0.36 | 0.36 | 82 | 1019.1 |
| 20260508031531 | 4 | 200 | 0.0 | 4.8 | 0.00 | 0.36 | 0.36 | 82 | 1018.9 |
| 20260508031007 | 4 | 130 | 0.0 | 4.8 | 0.00 | 0.36 | 0.36 | 81 | 1018.9 |
| 20260508030508 | 5 | 127 | 0.0 | 8.0 | 0.00 | 0.36 | 0.36 | 79 | 1018.7 |
| 20260508030025 | 5 | 148 | 1.6 | 8.0 | 0.00 | 0.36 | 0.36 | 78 | 1018.6 |
| 20260508025506 | 4 | 318 | 1.6 | 8.0 | 0.00 | 0.36 | 0.36 | 80 | 1018.8 |
| 20260508025009 | 4 | 223 | 1.6 | 3.2 | 0.00 | 0.36 | 0.36 | 82 | 1018.9 |
| 20260508024540 | 5 | 144 | 0.0 | 6.4 | 0.00 | 0.36 | 0.36 | 79 | 1018.6 |
| 20260508024008 | 4 | 238 | 0.0 | 9.7 | 0.00 | 0.36 | 0.36 | 80 | 1018.5 |
| 20260508023508 | 3 | 229 | 1.6 | 9.7 | 0.00 | 0.36 | 0.36 | 85 | 1018.5 |
| 20260508023028 | 3 | 256 | 3.2 | 9.7 | 0.00 | 0.36 | 0.36 | 85 | 1018.7 |
| 20260508022509 | 3 | 270 | 0.0 | 3.2 | 0.00 | 0.36 | 0.36 | 84 | 1018.4 |
| 20260508022007 | 3 | 116 | 1.6 | 3.2 | 0.03 | 0.36 | 0.36 | 84 | 1018.4 |
| 20260508021528 | 3 | 136 | 1.6 | 3.2 | 0.03 | 0.36 | 0.36 | 85 | 1018.4 |
| 20260508021010 | 3 | 240 | 0.0 | 1.6 | 0.03 | 0.36 | 0.36 | 84 | 1018.3 |
| 20260508020508 | 3 | 240 | 0.0 | 1.6 | 0.03 | 0.36 | 0.36 | 83 | 1018.3 |
| 20260508020029 | 4 | 240 | 0.0 | 1.6 | 0.03 | 0.36 | 0.36 | 83 | 1018.2 |
| 20260508015509 | 4 | 241 | 0.0 | 4.8 | 0.03 | 0.36 | 0.36 | 82 | 1018.3 |
| 20260508015007 | 5 | 158 | 3.2 | 4.8 | 0.03 | 0.36 | 0.36 | 80 | 1018.3 |
| 20260508014544 | 5 | 212 | 0.0 | 3.2 | 0.03 | 0.36 | 0.36 | 82 | 1018.3 |
| 20260508014011 | 5 | 215 | 1.6 | 4.8 | 0.03 | 0.36 | 0.36 | 80 | 1018.2 |
| 20260508013507 | 5 | 205 | 0.0 | 4.8 | 0.03 | 0.36 | 0.36 | 78 | 1018.1 |
| 20260508013029 | 6 | 143 | 1.6 | 8.0 | 0.03 | 0.36 | 0.36 | 76 | 1018.2 |
| 20260508012509 | 6 | 212 | 1.6 | 30.6 | 0.03 | 0.36 | 0.36 | 73 | 1018.2 |
| 20260508012009 | 6 | 211 | 1.6 | 30.6 | 0.00 | 0.33 | 0.33 | 73 | 1018.4 |
| 20260508011531 | 6 | 262 | 12.9 | 30.6 | 0.00 | 0.33 | 0.33 | 70 | 1018.5 |
| 20260508011007 | 6 | 214 | 9.7 | 30.6 | 0.00 | 0.33 | 0.33 | 71 | 1018.3 |
| 20260508010511 | 7 | 228 | 9.7 | 30.6 | 0.00 | 0.33 | 0.33 | 67 | 1018.3 |
| 20260508010029 | 7 | 192 | 4.8 | 25.7 | 0.00 | 0.33 | 0.33 | 68 | 1018.2 |
| 20260508005510 | 7 | 63 | 4.8 | 49.9 | 0.00 | 0.33 | 0.33 | 66 | 1018.2 |
| 20260508005008 | 9 | 252 | 19.3 | 49.9 | 0.00 | 0.33 | 0.33 | 58 | 1018.6 |
| 20260508004525 | 10 | 262 | 9.7 | 17.7 | 0.00 | 0.33 | 0.33 | 53 | 1017.7 |
| 20260508004013 | 10 | 218 | 3.2 | 6.4 | 0.00 | 0.33 | 0.33 | 54 | 1017.6 |
| 20260508003511 | 10 | 195 | 1.6 | 17.7 | 0.00 | 0.33 | 0.33 | 53 | 1017.6 |
| 20260508003012 | 10 | 235 | 9.7 | 19.3 | 0.00 | 0.33 | 0.33 | 52 | 1017.7 |
| 20260508002504 | 10 | 260 | 11.3 | 19.3 | 0.00 | 0.36 | 0.33 | 51 | 1017.8 |
| 20260508002003 | 10 | 236 | 6.4 | 16.1 | 0.00 | 0.36 | 0.33 | 52 | 1017.7 |
| 20260508001520 | 10 | 227 | 6.4 | 14.5 | 0.00 | 0.36 | 0.33 | 51 | 1017.7 |
| 20260508001003 | 11 | 260 | 6.4 | 19.3 | 0.00 | 0.36 | 0.33 | 52 | 1017.8 |
| 20260508000505 | 11 | 155 | 8.0 | 19.3 | 0.00 | 0.36 | 0.33 | 52 | 1017.8 |
| 20260508000016 | 10 | 255 | 3.2 | 9.7 | 0.00 | 0.36 | 0.33 | 52 | 1018.0 |
| 20260507235507 | 10 | 307 | 3.2 | 17.7 | 0.00 | 0.36 | 0.33 | 53 | 1018.0 |
| 20260507235007 | 10 | 283 | 4.8 | 17.7 | 0.00 | 0.36 | 0.33 | 51 | 1018.2 |
| 20260507234514 | 10 | 278 | 1.6 | 17.7 | 0.00 | 0.38 | 0.33 | 51 | 1018.0 |
| 20260507234007 | 10 | 289 | 4.8 | 17.7 | 0.00 | 0.38 | 0.33 | 50 | 1018.0 |
| 20260507233506 | 10 | 231 | 8.0 | 14.5 | 0.00 | 0.38 | 0.33 | 50 | 1018.0 |
| 20260507233009 | 10 | 271 | 9.7 | 22.5 | 0.00 | 0.38 | 0.33 | 50 | 1018.0 |
| 20260507232504 | 10 | 212 | 6.4 | 22.5 | 0.00 | 0.41 | 0.33 | 49 | 1018.0 |
| 20260507232004 | 11 | 275 | 9.7 | 24.1 | 0.00 | 0.41 | 0.33 | 46 | 1018.0 |
| 20260507231509 | 10 | 254 | 12.9 | 37.0 | 0.00 | 0.41 | 0.33 | 47 | 1018.0 |
| 20260507231009 | 10 | 276 | 19.3 | 37.0 | 0.00 | 0.41 | 0.33 | 48 | 1018.0 |
| 20260507230505 | 10 | 249 | 9.7 | 33.8 | 0.00 | 0.43 | 0.33 | 49 | 1018.1 |
| 20260507230008 | 11 | 277 | 16.1 | 33.8 | 0.00 | 0.43 | 0.33 | 46 | 1018.1 |
| 20260507225512 | 11 | 262 | 14.5 | 27.4 | 0.00 | 0.43 | 0.33 | 45 | 1018.0 |
| 20260507225003 | 11 | 282 | 8.0 | 27.4 | 0.00 | 0.46 | 0.33 | 45 | 1017.7 |
| 20260507224507 | 11 | 307 | 11.3 | 27.4 | 0.00 | 0.46 | 0.33 | 45 | 1017.8 |
| 20260507224006 | 11 | 226 | 9.7 | 25.7 | 0.00 | 0.46 | 0.33 | 45 | 1017.7 |
| 20260507223503 | 12 | 250 | 9.7 | 25.7 | 0.00 | 0.46 | 0.33 | 45 | 1017.7 |
| 20260507223022 | 12 | 248 | 8.0 | 16.1 | 0.00 | 0.48 | 0.33 | 43 | 1017.8 |
| 20260507222506 | 12 | 232 | 8.0 | 17.7 | 0.00 | 0.48 | 0.33 | 44 | 1017.7 |
| 20260507222007 | 12 | 259 | 11.3 | 25.7 | 0.00 | 0.51 | 0.33 | 43 | 1017.7 |
| 20260507221518 | 12 | 219 | 11.3 | 30.6 | 0.00 | 0.51 | 0.33 | 45 | 1017.8 |
| 20260507221007 | 12 | 264 | 14.5 | 30.6 | 0.00 | 0.53 | 0.33 | 48 | 1017.9 |
| 20260507220511 | 12 | 222 | 9.7 | 24.1 | 0.00 | 0.53 | 0.33 | 45 | 1018.0 |
| 20260507220018 | 12 | 225 | 12.9 | 32.2 | 0.00 | 0.56 | 0.33 | 46 | 1017.9 |
| 20260507215504 | 11 | 268 | 17.7 | 32.2 | 0.00 | 0.56 | 0.33 | 46 | 1018.2 |
| 20260507215008 | 11 | 249 | 8.0 | 24.1 | 0.00 | 0.58 | 0.33 | 49 | 1018.1 |
| 20260507214515 | 11 | 270 | 8.0 | 30.6 | 0.00 | 0.58 | 0.33 | 48 | 1018.2 |
| 20260507214008 | 11 | 221 | 12.9 | 30.6 | 0.00 | 0.61 | 0.33 | 48 | 1018.3 |
| 20260507213507 | 11 | 251 | 12.9 | 24.1 | 0.00 | 0.61 | 0.33 | 45 | 1018.4 |
| 20260507213012 | 12 | 214 | 12.9 | 25.7 | 0.00 | 0.64 | 0.33 | 46 | 1018.3 |
| 20260507212506 | 11 | 260 | 9.7 | 27.4 | 0.00 | 0.64 | 0.33 | 48 | 1018.2 |
| 20260507212006 | 11 | 294 | 12.9 | 27.4 | 0.00 | 0.64 | 0.33 | 48 | 1018.5 |
| 20260507211508 | 11 | 255 | 14.5 | 27.4 | 0.00 | 0.66 | 0.33 | 48 | 1018.6 |
| 20260507211006 | 11 | 240 | 12.9 | 27.4 | 0.00 | 0.66 | 0.33 | 47 | 1018.6 |
| 20260507210504 | 11 | 239 | 6.4 | 17.7 | 0.00 | 0.69 | 0.33 | 52 | 1018.7 |
| 20260507210030 | 11 | 263 | 6.4 | 16.1 | 0.00 | 0.69 | 0.33 | 52 | 1019.0 |
| 20260507205505 | 10 | 291 | 4.8 | 22.5 | 0.00 | 0.71 | 0.33 | 52 | 1019.2 |
| 20260507205005 | 10 | 276 | 8.0 | 22.5 | 0.00 | 0.71 | 0.33 | 53 | 1019.4 |
| 20260507204524 | 10 | 234 | 4.8 | 19.3 | 0.00 | 0.74 | 0.33 | 52 | 1019.4 |
| 20260507204007 | 10 | 261 | 4.8 | 19.3 | 0.03 | 0.74 | 0.33 | 52 | 1019.4 |
| 20260507203504 | 11 | 252 | 6.4 | 20.9 | 0.03 | 0.76 | 0.33 | 49 | 1019.4 |
| 20260507203024 | 11 | 203 | 8.0 | 20.9 | 0.03 | 0.79 | 0.33 | 53 | 1019.5 |
| 20260507202503 | 10 | 220 | 8.0 | 20.9 | 0.05 | 0.79 | 0.33 | 51 | 1019.6 |
| 20260507202009 | 10 | 238 | 8.0 | 27.4 | 0.05 | 0.81 | 0.33 | 53 | 1019.7 |
| 20260507201520 | 10 | 212 | 12.9 | 27.4 | 0.08 | 0.81 | 0.33 | 51 | 1019.6 |
| 20260507201004 | 10 | 244 | 9.7 | 27.4 | 0.08 | 0.84 | 0.33 | 55 | 1019.6 |
| 20260507200508 | 10 | 244 | 12.9 | 25.7 | 0.10 | 0.86 | 0.33 | 52 | 1019.7 |
| 20260507200018 | 10 | 269 | 8.0 | 17.7 | 0.13 | 0.89 | 0.33 | 53 | 1019.7 |
| 20260507195504 | 10 | 288 | 8.0 | 22.5 | 0.15 | 0.89 | 0.33 | 51 | 1019.7 |
| 20260507195010 | 10 | 287 | 9.7 | 25.7 | 0.15 | 0.89 | 0.33 | 52 | 1019.8 |
| 20260507194512 | 10 | 267 | 8.0 | 25.7 | 0.18 | 0.91 | 0.33 | 52 | 1019.9 |
| 20260507194008 | 10 | 289 | 14.5 | 24.1 | 0.15 | 0.89 | 0.30 | 49 | 1019.9 |
| 20260507193506 | 10 | 283 | 8.0 | 22.5 | 0.18 | 0.91 | 0.30 | 55 | 1019.9 |
| 20260507193012 | 10 | 295 | 8.0 | 25.7 | 0.18 | 0.91 | 0.30 | 53 | 1019.9 |
| 20260507192509 | 10 | 283 | 14.5 | 25.7 | 0.18 | 0.91 | 0.28 | 54 | 1020.1 |
| 20260507192006 | 10 | 281 | 8.0 | 19.3 | 0.18 | 0.91 | 0.28 | 53 | 1020.2 |
| 20260507191526 | 10 | 309 | 8.0 | 16.1 | 0.18 | 0.89 | 0.25 | 53 | 1020.2 |
| 20260507191007 | 9 | 214 | 4.8 | 16.1 | 0.18 | 0.89 | 0.25 | 56 | 1020.2 |
| 20260507190504 | 8 | 292 | 8.0 | 16.1 | 0.18 | 0.86 | 0.23 | 55 | 1020.5 |
| 20260507190028 | 8 | 214 | 3.2 | 9.7 | 0.15 | 0.84 | 0.20 | 53 | 1020.5 |
| 20260507185504 | 8 | 117 | 3.2 | 9.7 | 0.13 | 0.84 | 0.18 | 57 | 1020.6 |
| 20260507185004 | 8 | 255 | 6.4 | 9.7 | 0.15 | 0.84 | 0.18 | 53 | 1020.7 |
| 20260507184524 | 8 | 340 | 4.8 | 9.7 | 0.13 | 0.81 | 0.15 | 53 | 1020.6 |
| 20260507184005 | 7 | 250 | 4.8 | 9.7 | 0.13 | 0.81 | 0.15 | 54 | 1020.7 |
| 20260507183508 | 7 | 281 | 4.8 | 11.3 | 0.13 | 0.79 | 0.13 | 59 | 1020.8 |
| 20260507183023 | 6 | 123 | 6.4 | 11.3 | 0.13 | 0.79 | 0.13 | 56 | 1020.9 |
| 20260507182506 | 6 | 237 | 3.2 | 8.0 | 0.10 | 0.76 | 0.10 | 55 | 1021.0 |
| 20260507182011 | 6 | 10 | 1.6 | 9.7 | 0.10 | 0.76 | 0.10 | 57 | 1021.2 |
| 20260507181520 | 6 | 115 | 3.2 | 12.9 | 0.08 | 0.74 | 0.08 | 55 | 1021.2 |
| 20260507181016 | 6 | 233 | 4.8 | 12.9 | 0.08 | 0.74 | 0.08 | 53 | 1021.3 |
| 20260507180508 | 6 | 198 | 4.8 | 12.9 | 0.05 | 0.71 | 0.05 | 55 | 1021.4 |
| 20260507180016 | 6 | 188 | 3.2 | 9.7 | 0.05 | 0.74 | 0.05 | 57 | 1021.4 |
| 20260507175509 | 5 | 272 | 1.6 | 9.7 | 0.05 | 0.74 | 0.05 | 58 | 1021.5 |
| 20260507175004 | 5 | 132 | 6.4 | 9.7 | 0.03 | 0.71 | 0.03 | 57 | 1021.5 |
| 20260507174514 | 5 | 40 | 1.6 | 6.4 | 0.03 | 0.71 | 0.03 | 54 | 1021.6 |
| 20260507174009 | 5 | 325 | 3.2 | 6.4 | 0.03 | 0.71 | 0.03 | 53 | 1021.7 |
| 20260507173504 | 5 | 114 | 1.6 | 6.4 | 0.00 | 0.69 | 0.00 | 53 | 1021.8 |
| 20260507173030 | 5 | 265 | 0.0 | 6.4 | 0.00 | 0.69 | 0.00 | 54 | 1021.8 |
| 20260507172508 | 5 | 238 | 1.6 | 6.4 | 0.00 | 0.69 | 0.00 | 54 | 1021.9 |
| 20260507172006 | 5 | 270 | 3.2 | 6.4 | 0.00 | 0.69 | 0.00 | 56 | 1021.9 |
| 20260507171528 | 5 | 85 | 1.6 | 9.7 | 0.00 | 0.69 | 0.00 | 55 | 1022.1 |
| 20260507171006 | 4 | 250 | 4.8 | 9.7 | 0.00 | 0.69 | 0.00 | 54 | 1022.1 |
| 20260507170510 | 4 | 222 | 0.0 | 11.3 | 0.00 | 0.69 | 0.00 | 58 | 1022.0 |
| 20260507170026 | 3 | 148 | 0.0 | 11.3 | 0.00 | 0.71 | 0.00 | 58 | 1022.1 |
| 20260507165507 | 3 | 136 | 4.8 | 12.9 | 0.00 | 0.71 | 0.00 | 58 | 1022.1 |
| 20260507165014 | 3 | 167 | 3.2 | 12.9 | 0.00 | 0.71 | 0.00 | 58 | 1022.2 |
| 20260507164525 | 3 | 115 | 4.8 | 8.0 | 0.00 | 0.71 | 0.00 | 57 | 1022.3 |
| 20260507164005 | 3 | 9 | 0.0 | 6.4 | 0.00 | 0.71 | 0.00 | 61 | 1022.4 |
| 20260507163510 | 3 | 72 | 1.6 | 6.4 | 0.00 | 0.71 | 0.00 | 59 | 1022.4 |
| 20260507163025 | 3 | 135 | 1.6 | 6.4 | 0.00 | 0.71 | 0.00 | 58 | 1022.3 |
| 20260507162508 | 3 | 108 | 1.6 | 11.3 | 0.00 | 0.71 | 0.00 | 58 | 1022.4 |
| 20260507162011 | 3 | 149 | 4.8 | 11.3 | 0.00 | 0.71 | 0.00 | 58 | 1022.4 |
| 20260507161520 | 3 | 24 | 3.2 | 8.0 | 0.00 | 0.71 | 0.00 | 58 | 1022.5 |
| 20260507161009 | 2 | 4 | 3.2 | 8.0 | 0.00 | 0.71 | 0.00 | 60 | 1022.5 |
| 20260507160505 | 2 | 279 | 1.6 | 8.0 | 0.00 | 0.71 | 0.00 | 60 | 1022.4 |
| 20260507160017 | 2 | 251 | 1.6 | 4.8 | 0.00 | 0.71 | 0.00 | 60 | 1022.5 |
| 20260507155512 | 2 | 163 | 1.6 | 4.8 | 0.00 | 0.71 | 0.00 | 61 | 1022.6 |
| 20260507155011 | 2 | 108 | 0.0 | 6.4 | 0.00 | 0.71 | 0.00 | 63 | 1022.6 |
| 20260507154526 | 1 | 137 | 3.2 | 6.4 | 0.00 | 0.71 | 0.00 | 63 | 1022.6 |
| 20260507154009 | 1 | 121 | 1.6 | 4.8 | 0.00 | 0.71 | 0.00 | 63 | 1022.6 |
| 20260507153506 | 1 | 212 | 1.6 | 4.8 | 0.00 | 0.71 | 0.00 | 64 | 1022.6 |
| 20260507153011 | 1 | 52 | 0.0 | 9.7 | 0.00 | 0.71 | 0.00 | 64 | 1022.7 |
| 20260507152503 | 1 | 30 | 4.8 | 9.7 | 0.00 | 0.71 | 0.00 | 64 | 1022.6 |
| 20260507152007 | 1 | 39 | 3.2 | 12.9 | 0.00 | 0.71 | 0.00 | 64 | 1022.7 |
| 20260507151508 | 1 | 30 | 3.2 | 12.9 | 0.00 | 0.71 | 0.00 | 67 | 1022.7 |
| 20260507151007 | 1 | 32 | 4.8 | 6.4 | 0.00 | 0.71 | 0.00 | 69 | 1022.7 |
| 20260507150504 | 0 | 319 | 3.2 | 6.4 | 0.00 | 0.71 | 0.00 | 69 | 1022.8 |
| 20260507150010 | 0 | 48 | 3.2 | 6.4 | 0.00 | 0.71 | 0.00 | 72 | 1022.7 |
| 20260507145506 | 0 | 20 | 1.6 | 4.8 | 0.00 | 0.71 | 0.00 | 72 | 1022.7 |
| 20260507145003 | 0 | 31 | 1.6 | 4.8 | 0.00 | 0.71 | 0.00 | 73 | 1022.7 |
| 20260507144525 | 0 | 46 | 1.6 | 8.0 | 0.00 | 0.71 | 0.00 | 74 | 1022.7 |
| 20260507144006 | 0 | 47 | 3.2 | 8.0 | 0.00 | 0.71 | 0.00 | 73 | 1022.7 |
| 20260507143503 | 0 | 40 | 1.6 | 4.8 | 0.00 | 0.71 | 0.00 | 75 | 1022.8 |
| 20260507143026 | 0 | 34 | 1.6 | 4.8 | 0.00 | 0.71 | 0.00 | 74 | 1022.8 |
| 20260507142505 | 0 | 25 | 3.2 | 4.8 | 0.00 | 0.71 | 0.00 | 75 | 1022.9 |
| 20260507142002 | 0 | 23 | 1.6 | 3.2 | 0.00 | 0.71 | 0.00 | 75 | 1022.9 |
| 20260507141517 | -1 | 321 | 0.0 | 1.6 | 0.00 | 0.71 | 0.00 | 79 | 1022.9 |
| 20260507141003 | -1 | 288 | 0.0 | 0.0 | 0.00 | 0.71 | 0.00 | 82 | 1022.9 |
| 20260507140507 | -2 | 287 | 0.0 | 0.0 | 0.00 | 0.71 | 0.00 | 85 | 1022.9 |
| 20260507140025 | -2 | 257 | 0.0 | 0.0 | 0.00 | 0.71 | 0.00 | 85 | 1022.9 |
| 20260507135502 | -2 | 257 | 0.0 | 0.0 | 0.00 | 0.71 | 0.00 | 86 | 1022.9 |
| 20260507135006 | -2 | 257 | 0.0 | 0.0 | 0.00 | 0.71 | 0.00 | 86 | 1023.0 |
| 20260507134514 | -2 | 257 | 0.0 | 0.0 | 0.00 | 0.71 | 0.00 | 86 | 1022.9 |
| 20260507134011 | -2 | 257 | 0.0 | 0.0 | 0.00 | 0.71 | 0.00 | 86 | 1022.8 |
| 20260507133510 | -3 | 257 | 0.0 | 0.0 | 0.00 | 0.71 | 0.00 | 87 | 1022.8 |
| 20260507133010 | -3 | 257 | 0.0 | 0.0 | 0.00 | 0.71 | 0.00 | 88 | 1022.7 |
| 20260507132507 | -3 | 257 | 0.0 | 0.0 | 0.00 | 0.71 | 0.00 | 88 | 1022.7 |
| 20260507132006 | -3 | 257 | 0.0 | 0.0 | 0.00 | 0.71 | 0.00 | 88 | 1022.6 |
| 20260507131507 | -3 | 256 | 0.0 | 0.0 | 0.00 | 0.71 | 0.00 | 88 | 1022.7 |
| 20260507131009 | -4 | 256 | 0.0 | 0.0 | 0.00 | 0.71 | 0.00 | 88 | 1022.6 |
| 20260507130504 | -4 | 256 | 0.0 | 1.6 | 0.00 | 0.71 | 0.00 | 88 | 1022.5 |
| 20260507130024 | -4 | 256 | 0.0 | 1.6 | 0.00 | 0.71 | 0.00 | 88 | 1022.5 |
| 20260507125510 | -4 | 213 | 0.0 | 0.0 | 0.00 | 0.71 | 0.00 | 89 | 1022.5 |
| 20260507125003 | -4 | 213 | 0.0 | 1.6 | 0.00 | 0.71 | 0.00 | 89 | 1022.5 |
| 20260507124525 | -5 | 213 | 0.0 | 1.6 | 0.00 | 0.71 | 0.00 | 88 | 1022.4 |
| 20260507124009 | -5 | 198 | 0.0 | 4.8 | 0.00 | 0.71 | 0.00 | 89 | 1022.4 |
| 20260507123509 | -5 | 198 | 1.6 | 4.8 | 0.00 | 0.71 | 0.00 | 89 | 1022.3 |
| 20260507103024 | -6 | 261 | 0.0 | 0.0 | 0.00 | 0.71 | 0.00 | 91 | 1022.8 |
| 20260507102503 | -6 | 261 | 0.0 | 0.0 | 0.00 | 0.71 | 0.00 | 91 | 1022.9 |
| 20260507102012 | -6 | 261 | 0.0 | 1.6 | 0.00 | 0.71 | 0.00 | 91 | 1023.0 |
| 20260507101534 | -6 | 261 | 0.0 | 1.6 | 0.00 | 0.71 | 0.00 | 91 | 1023.0 |
| 20260507101003 | -6 | 262 | 0.0 | 1.6 | 0.00 | 0.71 | 0.00 | 90 | 1023.0 |
| 20260507100506 | -6 | 262 | 0.0 | 4.8 | 0.00 | 0.71 | 0.00 | 91 | 1022.9 |
| 20260507100025 | -6 | 195 | 1.6 | 4.8 | 0.00 | 0.71 | 0.00 | 91 | 1022.9 |
| 20260507095503 | -6 | 240 | 0.0 | 1.6 | 0.00 | 0.71 | 0.00 | 91 | 1023.0 |